,,PA_Meas_PMT16A,,PR_Meas_QMR101_102,,RH_Meas_QMH101,,SR_Meas_QMS101,,TA_Meas_QMH101,,GenWind,,GenWind,
time,status,PA,status,PR,status,RH,status,SR,status,TA,status,DirAvg,status,SpdAvg,
2015-05-22, 07:26:04,VALID,919.205,VALID,0,VALID,99.0206,VALID,76.2832,VALID,19.6068,VALID,133,VALID,0,
2015-05-22, 07:27:04,VALID,919.182,VALID,0,VALID,99.0206,VALID,78.1097,VALID,19.6263,VALID,133,VALID,0.105859,
2015-05-22, 07:28:04,VALID,919.17,VALID,0,VALID,99.0282,VALID,79.7213,VALID,19.6833,VALID,133,VALID,0,
2015-05-22, 07:29:04,VALID,919.188,VALID,0,VALID,99.0129,VALID,81.4404,VALID,19.7418,VALID,130,VALID,0.358594,
2015-05-22, 07:30:04,VALID,919.195,VALID,0,VALID,98.9901,VALID,83.3743,VALID,19.7808,VALID,117,VALID,0,
2015-05-22, 07:31:04,VALID,919.201,VALID,0,VALID,99.0282,VALID,85.738,VALID,19.7613,VALID,117,VALID,0,
2015-05-22, 07:32:04,VALID,919.198,VALID,0,VALID,99.0815,VALID,88.5315,VALID,19.6833,VALID,72,VALID,0,
2015-05-22, 07:33:04,VALID,919.212,VALID,0,VALID,99.051,VALID,91.4324,VALID,19.7418,VALID,72,VALID,0,
2015-05-22, 07:34:04,VALID,919.2,VALID,0,VALID,99.0739,VALID,94.4408,VALID,19.7013,VALID,109,VALID,0,
2015-05-22, 07:35:04,VALID,919.212,VALID,0,VALID,99.0968,VALID,97.0194,VALID,19.6833,VALID,110,VALID,0,
2015-05-22, 07:36:04,VALID,919.214,VALID,0,VALID,99.0815,VALID,99.7054,VALID,19.7223,VALID,109,VALID,0,
2015-05-22, 07:37:04,VALID,919.205,VALID,0,VALID,99.0815,VALID,102.284,VALID,19.7028,VALID,80,VALID,0,
2015-05-22, 07:38:04,VALID,919.197,VALID,0,VALID,99.051,VALID,104.863,VALID,19.7808,VALID,95,VALID,0,
2015-05-22, 07:39:04,VALID,919.211,VALID,0,VALID,99.0739,VALID,106.904,VALID,19.7808,VALID,102,VALID,0,
2015-05-22, 07:40:04,VALID,919.22,VALID,0,VALID,99.0663,VALID,108.516,VALID,19.8393,VALID,71,VALID,0,
2015-05-22, 07:41:04,VALID,919.249,VALID,0,VALID,99.0434,VALID,109.697,VALID,19.8198,VALID,76,VALID,0,
2015-05-22, 07:42:04,VALID,919.29,VALID,0,VALID,99.051,VALID,110.45,VALID,19.8783,VALID,60,VALID,0,
2015-05-22, 07:43:04,VALID,919.303,VALID,0,VALID,99.0739,VALID,110.772,VALID,19.8588,VALID,99,VALID,0,
2015-05-22, 07:44:04,VALID,919.319,VALID,0,VALID,99.0815,VALID,110.235,VALID,19.8588,VALID,99,VALID,0,
2015-05-22, 07:45:04,VALID,919.323,VALID,0,VALID,99.0739,VALID,109.483,VALID,19.8378,VALID,52,VALID,0,
2015-05-22, 07:46:04,VALID,919.29,VALID,0,VALID,99.051,VALID,108.73,VALID,19.9173,VALID,51,VALID,0,
2015-05-22, 07:47:04,VALID,919.31,VALID,0,VALID,99.0587,VALID,108.086,VALID,19.8978,VALID,91,VALID,0,
2015-05-22, 07:48:04,VALID,919.327,VALID,0,VALID,99.0739,VALID,107.871,VALID,19.9173,VALID,91,VALID,0,
2015-05-22, 07:49:04,VALID,919.322,VALID,0,VALID,99.0206,VALID,107.978,VALID,19.9173,VALID,90,VALID,0,
2015-05-22, 07:50:04,VALID,919.326,VALID,0,VALID,99.0129,VALID,108.301,VALID,19.9563,VALID,90,VALID,0,
2015-05-22, 07:51:04,VALID,919.344,VALID,0,VALID,98.9748,VALID,108.73,VALID,20.0148,VALID,90,VALID,0,
2015-05-22, 07:52:04,VALID,919.38,VALID,0,VALID,98.9748,VALID,108.945,VALID,20.0133,VALID,90,VALID,0,
2015-05-22, 07:53:04,VALID,919.395,VALID,0,VALID,98.9443,VALID,109.16,VALID,20.0733,VALID,90,VALID,0,
2015-05-22, 07:54:04,VALID,919.426,VALID,0,VALID,98.9291,VALID,109.375,VALID,20.1108,VALID,91,VALID,0,
2015-05-22, 07:55:04,VALID,919.483,VALID,0,VALID,98.9291,VALID,109.805,VALID,20.1108,VALID,105,VALID,0,
2015-05-22, 07:56:04,VALID,919.517,VALID,0,VALID,98.9214,VALID,110.02,VALID,20.1513,VALID,116,VALID,0,
2015-05-22, 07:57:04,VALID,919.532,VALID,0,VALID,98.9367,VALID,110.127,VALID,20.1708,VALID,150,VALID,0,
2015-05-22, 07:58:04,VALID,919.537,VALID,0,VALID,98.8986,VALID,110.02,VALID,20.1903,VALID,166,VALID,0,
2015-05-22, 07:59:04,VALID,919.525,VALID,0,VALID,98.8833,VALID,110.235,VALID,20.1693,VALID,107,VALID,0,
2015-05-22, 08:00:04,VALID,919.544,VALID,0,VALID,98.8833,VALID,109.697,VALID,20.1708,VALID,129,VALID,0,
2015-05-22, 08:01:04,VALID,919.553,VALID,0,VALID,98.8376,VALID,108.838,VALID,20.1693,VALID,93,VALID,0,
2015-05-22, 08:02:04,VALID,919.532,VALID,0,VALID,98.8223,VALID,108.193,VALID,20.1693,VALID,135,VALID,0,
2015-05-22, 08:03:04,VALID,919.525,VALID,0,VALID,98.8376,VALID,107.763,VALID,20.1498,VALID,135,VALID,0,
2015-05-22, 08:04:04,VALID,919.572,VALID,0,VALID,98.8147,VALID,107.226,VALID,20.1693,VALID,135,VALID,0,
2015-05-22, 08:05:04,VALID,919.534,VALID,0,VALID,98.7842,VALID,106.689,VALID,20.2098,VALID,135,VALID,0,
2015-05-22, 08:06:04,VALID,919.566,VALID,0,VALID,98.769,VALID,106.044,VALID,20.1903,VALID,160,VALID,0,
2015-05-22, 08:07:04,VALID,919.564,VALID,0,VALID,98.7995,VALID,105.185,VALID,20.1513,VALID,162,VALID,0,
2015-05-22, 08:08:04,VALID,919.553,VALID,0,VALID,98.7461,VALID,104.54,VALID,20.1903,VALID,152,VALID,0,
2015-05-22, 08:09:04,VALID,919.554,VALID,0,VALID,98.7461,VALID,104.003,VALID,20.1903,VALID,150,VALID,0,
2015-05-22, 08:10:04,VALID,919.546,VALID,0,VALID,98.7004,VALID,103.573,VALID,20.1708,VALID,141,VALID,0,
2015-05-22, 08:11:04,VALID,919.562,VALID,0,VALID,98.6165,VALID,103.466,VALID,20.1693,VALID,133,VALID,0,
2015-05-22, 08:12:04,VALID,919.557,VALID,0,VALID,98.586,VALID,103.251,VALID,20.1693,VALID,123,VALID,0,
2015-05-22, 08:13:04,VALID,919.564,VALID,0,VALID,98.5479,VALID,103.144,VALID,20.2083,VALID,104,VALID,0,
2015-05-22, 08:14:04,VALID,919.602,VALID,0,VALID,98.525,VALID,103.144,VALID,20.2473,VALID,119,VALID,0,
2015-05-22, 08:15:04,VALID,919.577,VALID,0,VALID,98.5327,VALID,103.144,VALID,20.2473,VALID,113,VALID,0,
2015-05-22, 08:16:04,VALID,919.646,VALID,0,VALID,98.5022,VALID,102.929,VALID,20.2668,VALID,98,VALID,0,
2015-05-22, 08:17:04,VALID,919.631,VALID,0,VALID,98.5022,VALID,102.821,VALID,20.2083,VALID,105,VALID,0,
2015-05-22, 08:18:04,VALID,919.666,VALID,0,VALID,98.4107,VALID,102.391,VALID,20.2278,VALID,80,VALID,0,
2015-05-22, 08:19:04,VALID,919.648,VALID,0,VALID,98.3497,VALID,102.069,VALID,20.2278,VALID,40,VALID,0,
2015-05-22, 08:20:04,VALID,919.654,VALID,0,VALID,98.2887,VALID,101.962,VALID,20.2473,VALID,72,VALID,0.867969,
2015-05-22, 08:21:04,VALID,919.639,VALID,0,VALID,98.2277,VALID,102.069,VALID,20.2278,VALID,59,VALID,1.28906,
2015-05-22, 08:22:04,VALID,919.651,VALID,0,VALID,98.1972,VALID,102.499,VALID,20.2473,VALID,66,VALID,1.08906,
2015-05-22, 08:23:04,VALID,919.65,VALID,0,VALID,98.1439,VALID,103.144,VALID,20.2473,VALID,57,VALID,0.980469,
2015-05-22, 08:24:04,VALID,919.651,VALID,0,VALID,98.1362,VALID,104.218,VALID,20.2473,VALID,96,VALID,0,
2015-05-22, 08:25:04,VALID,919.669,VALID,0,VALID,98.1057,VALID,105.615,VALID,20.2278,VALID,104,VALID,0,
2015-05-22, 08:26:04,VALID,919.677,VALID,0,VALID,98.0676,VALID,107.334,VALID,20.2293,VALID,119,VALID,0.780859,
2015-05-22, 08:27:04,VALID,919.725,VALID,0,VALID,98.0524,VALID,109.805,VALID,20.2293,VALID,113,VALID,1.23594,
2015-05-22, 08:28:04,VALID,919.731,VALID,0,VALID,97.9838,VALID,113.243,VALID,20.2489,VALID,130,VALID,0.889844,
2015-05-22, 08:29:04,VALID,919.796,VALID,0,VALID,97.9152,VALID,117.433,VALID,20.2684,VALID,125,VALID,0.908984,
2015-05-22, 08:30:04,VALID,919.818,VALID,0,VALID,97.938,VALID,121.838,VALID,20.2879,VALID,146,VALID,1.18047,
2015-05-22, 08:31:04,VALID,919.861,VALID,0,VALID,97.8542,VALID,127.21,VALID,20.3074,VALID,121,VALID,1.10391,
2015-05-22, 08:32:04,VALID,919.907,VALID,0,VALID,97.8923,VALID,132.367,VALID,20.3659,VALID,120,VALID,1.0043,
2015-05-22, 08:33:04,VALID,919.911,VALID,0,VALID,97.9304,VALID,137.31,VALID,20.4049,VALID,125,VALID,1.59297,
2015-05-22, 08:34:04,VALID,919.94,VALID,0,VALID,97.8847,VALID,141.5,VALID,20.4049,VALID,111,VALID,1.7918,
2015-05-22, 08:35:04,VALID,919.977,VALID,0,VALID,97.8618,VALID,145.368,VALID,20.4244,VALID,134,VALID,1.78945,
2015-05-22, 08:36:04,VALID,920.016,VALID,0,VALID,97.7856,VALID,148.269,VALID,20.4228,VALID,119,VALID,1.09883,
2015-05-22, 08:37:04,VALID,920.034,VALID,0,VALID,97.7932,VALID,150.632,VALID,20.4829,VALID,141,VALID,1.21484,
2015-05-22, 08:38:04,VALID,920.03,VALID,0,VALID,97.8008,VALID,152.459,VALID,20.5024,VALID,138,VALID,1.72891,
2015-05-22, 08:39:04,VALID,920.078,VALID,0,VALID,97.8923,VALID,153.211,VALID,20.5609,VALID,130,VALID,1.02109,
2015-05-22, 08:40:04,VALID,920.104,VALID,0,VALID,97.9228,VALID,153.426,VALID,20.5399,VALID,137,VALID,1.55977,
2015-05-22, 08:41:04,VALID,920.131,VALID,0,VALID,97.9609,VALID,152.889,VALID,20.5984,VALID,137,VALID,1.16133,
2015-05-22, 08:42:04,VALID,920.161,VALID,0,VALID,98.0295,VALID,152.352,VALID,20.6194,VALID,142,VALID,2.35313,
2015-05-22, 08:43:04,VALID,920.18,VALID,0,VALID,97.9761,VALID,151.814,VALID,20.639,VALID,140,VALID,1.42539,
2015-05-22, 08:44:04,VALID,920.209,VALID,0,VALID,97.9914,VALID,151.707,VALID,20.6374,VALID,142,VALID,1.45039,
2015-05-22, 08:45:04,VALID,920.229,VALID,0,VALID,97.999,VALID,151.814,VALID,20.6585,VALID,119,VALID,1.36016,
2015-05-22, 08:46:04,VALID,920.254,VALID,0,VALID,98.0295,VALID,152.674,VALID,20.6975,VALID,111,VALID,1.1332,
2015-05-22, 08:47:04,VALID,920.237,VALID,0,VALID,98.0066,VALID,154.178,VALID,20.6374,VALID,133,VALID,1.78477,
2015-05-22, 08:48:04,VALID,920.219,VALID,0,VALID,97.9609,VALID,156.327,VALID,20.6569,VALID,115,VALID,1.22969,
2015-05-22, 08:49:04,VALID,920.215,VALID,0,VALID,97.877,VALID,159.013,VALID,20.678,VALID,129,VALID,0.00585938,
2015-05-22, 08:50:04,VALID,920.241,VALID,0,VALID,97.8008,VALID,161.914,VALID,20.7365,VALID,121,VALID,0,
2015-05-22, 08:51:04,VALID,920.222,VALID,0,VALID,97.8389,VALID,165.03,VALID,20.7934,VALID,143,VALID,0,
2015-05-22, 08:52:04,VALID,920.213,VALID,0,VALID,97.7246,VALID,168.145,VALID,20.873,VALID,143,VALID,0,
2015-05-22, 08:53:04,VALID,920.251,VALID,0,VALID,97.656,VALID,170.939,VALID,20.912,VALID,166,VALID,0,
2015-05-22, 08:54:04,VALID,920.249,VALID,0,VALID,97.5111,VALID,173.732,VALID,20.969,VALID,166,VALID,0,
2015-05-22, 08:55:04,VALID,920.253,VALID,0,VALID,97.2214,VALID,176.956,VALID,21.008,VALID,162,VALID,0,
2015-05-22, 08:56:04,VALID,920.239,VALID,0,VALID,97.1299,VALID,180.716,VALID,21.1266,VALID,162,VALID,0,
2015-05-22, 08:57:04,VALID,920.241,VALID,0,VALID,97.0461,VALID,185.443,VALID,21.2047,VALID,162,VALID,0,
2015-05-22, 08:58:04,VALID,920.226,VALID,0,VALID,96.5658,VALID,190.923,VALID,21.2421,VALID,162,VALID,0,
2015-05-22, 08:59:04,VALID,920.22,VALID,0,VALID,94.8963,VALID,197.477,VALID,21.2437,VALID,152,VALID,0,
2015-05-22, 09:00:04,VALID,920.215,VALID,0,VALID,93.6537,VALID,204.89,VALID,21.2827,VALID,149,VALID,0,
2015-05-22, 09:01:04,VALID,920.224,VALID,0,VALID,94.6142,VALID,210.477,VALID,21.3998,VALID,149,VALID,0,
2015-05-22, 09:02:04,VALID,920.232,VALID,0,VALID,94.5075,VALID,214.775,VALID,21.4177,VALID,150,VALID,0,
2015-05-22, 09:03:04,VALID,920.221,VALID,0,VALID,94.1568,VALID,218.858,VALID,21.4762,VALID,76,VALID,0,
2015-05-22, 09:04:04,VALID,920.208,VALID,0,VALID,94.1721,VALID,222.94,VALID,21.5542,VALID,75,VALID,0,
2015-05-22, 09:05:04,VALID,920.189,VALID,0,VALID,90.4899,VALID,226.808,VALID,21.5152,VALID,151,VALID,0,
2015-05-22, 09:06:04,VALID,920.165,VALID,0,VALID,88.8357,VALID,231.321,VALID,21.4762,VALID,136,VALID,0,
2015-05-22, 09:07:04,VALID,920.179,VALID,0,VALID,90.7796,VALID,238.09,VALID,21.5152,VALID,136,VALID,0,
2015-05-22, 09:08:04,VALID,920.187,VALID,0,VALID,89.8191,VALID,244.858,VALID,21.5152,VALID,145,VALID,0,
2015-05-22, 09:09:04,VALID,920.157,VALID,0,VALID,88.5536,VALID,249.908,VALID,21.5136,VALID,147,VALID,0,
2015-05-22, 09:10:04,VALID,920.161,VALID,0,VALID,89.5904,VALID,253.883,VALID,21.6111,VALID,145,VALID,0,
2015-05-22, 09:11:04,VALID,920.161,VALID,0,VALID,89.4227,VALID,256.892,VALID,21.6713,VALID,128,VALID,0,
2015-05-22, 09:12:04,VALID,920.148,VALID,0,VALID,88.2029,VALID,260.115,VALID,21.6696,VALID,126,VALID,0,
2015-05-22, 09:13:04,VALID,920.145,VALID,0,VALID,89.5523,VALID,262.909,VALID,21.7298,VALID,111,VALID,0,
2015-05-22, 09:14:04,VALID,920.13,VALID,0,VALID,88.8128,VALID,265.057,VALID,21.7298,VALID,100,VALID,0,
2015-05-22, 09:15:04,VALID,920.094,VALID,0,VALID,88.2944,VALID,265.38,VALID,21.7493,VALID,112,VALID,0,
2015-05-22, 09:16:04,VALID,920.057,VALID,0,VALID,89.537,VALID,263.446,VALID,21.7867,VALID,112,VALID,0,
2015-05-22, 09:17:04,VALID,920.066,VALID,0,VALID,90.429,VALID,261.619,VALID,21.8257,VALID,104,VALID,0,
2015-05-22, 09:18:04,VALID,920.028,VALID,0,VALID,90.9778,VALID,260.115,VALID,21.8842,VALID,83,VALID,0,
2015-05-22, 09:19:04,VALID,919.973,VALID,0,VALID,90.3908,VALID,260.222,VALID,21.9249,VALID,62,VALID,1.50703,
2015-05-22, 09:20:04,VALID,919.927,VALID,0,VALID,89.3693,VALID,262.479,VALID,21.9038,VALID,63,VALID,1.60898,
2015-05-22, 09:21:04,VALID,919.93,VALID,0,VALID,89.537,VALID,265.917,VALID,21.8647,VALID,63,VALID,2.02344,
2015-05-22, 09:22:04,VALID,919.898,VALID,0,VALID,91.5267,VALID,269.892,VALID,21.8469,VALID,80,VALID,0,
2015-05-22, 09:23:04,VALID,919.886,VALID,0,VALID,93.5622,VALID,274.297,VALID,21.8859,VALID,49,VALID,0,
2015-05-22, 09:24:04,VALID,919.883,VALID,0,VALID,93.8671,VALID,275.264,VALID,21.9461,VALID,64,VALID,0,
2015-05-22, 09:25:04,VALID,919.872,VALID,0,VALID,89.2245,VALID,272.363,VALID,21.9249,VALID,72,VALID,0,
2015-05-22, 09:26:04,VALID,919.845,VALID,0,VALID,90.6729,VALID,270.967,VALID,21.964,VALID,62,VALID,0,
2015-05-22, 09:27:04,VALID,919.86,VALID,0,VALID,91.1379,VALID,270.752,VALID,22.003,VALID,64,VALID,0,
2015-05-22, 09:28:04,VALID,919.865,VALID,0,VALID,92.2662,VALID,270.752,VALID,22.0225,VALID,92,VALID,0,
2015-05-22, 09:29:04,VALID,919.841,VALID,0,VALID,92.8532,VALID,270.644,VALID,22.1005,VALID,85,VALID,0,
2015-05-22, 09:30:04,VALID,919.865,VALID,0,VALID,94.355,VALID,272.041,VALID,22.2159,VALID,90,VALID,0,
2015-05-22, 09:31:04,VALID,919.871,VALID,0,VALID,87.6083,VALID,274.727,VALID,22.1786,VALID,126,VALID,0,
2015-05-22, 09:32:04,VALID,919.825,VALID,0,VALID,85.9616,VALID,279.025,VALID,22.1396,VALID,125,VALID,0,
2015-05-22, 09:33:04,VALID,919.835,VALID,0,VALID,86.6477,VALID,284.612,VALID,22.1591,VALID,139,VALID,0,
2015-05-22, 09:34:04,VALID,919.83,VALID,0,VALID,87.2881,VALID,291.166,VALID,22.2176,VALID,127,VALID,0,
2015-05-22, 09:35:04,VALID,919.825,VALID,0,VALID,88.3097,VALID,298.257,VALID,22.2745,VALID,132,VALID,0,
2015-05-22, 09:36:04,VALID,919.83,VALID,0,VALID,88.7747,VALID,306.852,VALID,22.4128,VALID,133,VALID,0,
2015-05-22, 09:37:04,VALID,919.833,VALID,0,VALID,86.8612,VALID,319.637,VALID,22.4891,VALID,136,VALID,0,
2015-05-22, 09:38:04,VALID,919.826,VALID,0,VALID,85.7787,VALID,325.654,VALID,22.5867,VALID,139,VALID,0,
2015-05-22, 09:39:04,VALID,919.821,VALID,0,VALID,85.024,VALID,331.349,VALID,22.6647,VALID,139,VALID,0,
2015-05-22, 09:40:04,VALID,919.836,VALID,0,VALID,85.9083,VALID,339.621,VALID,22.7623,VALID,101,VALID,0,
2015-05-22, 09:41:04,VALID,919.852,VALID,0,VALID,83.5145,VALID,348.432,VALID,22.8404,VALID,95,VALID,0,
2015-05-22, 09:42:04,VALID,919.857,VALID,0,VALID,84.071,VALID,365.407,VALID,22.9575,VALID,95,VALID,0,
2015-05-22, 09:43:04,VALID,919.837,VALID,0,VALID,80.8311,VALID,392.053,VALID,23.0746,VALID,66,VALID,0,
2015-05-22, 09:44:04,VALID,919.851,VALID,0,VALID,80.3051,VALID,451.468,VALID,23.1917,VALID,57,VALID,0,
2015-05-22, 09:45:04,VALID,919.868,VALID,0,VALID,81.601,VALID,466.832,VALID,23.3283,VALID,57,VALID,0,
2015-05-22, 09:46:04,VALID,919.863,VALID,0,VALID,79.2302,VALID,463.394,VALID,23.504,VALID,58,VALID,0,
2015-05-22, 09:47:04,VALID,919.905,VALID,0,VALID,79.7257,VALID,444.377,VALID,23.7578,VALID,58,VALID,0,
2015-05-22, 09:48:04,VALID,919.904,VALID,0,VALID,76.3028,VALID,436.319,VALID,23.992,VALID,57,VALID,0,
2015-05-22, 09:49:04,VALID,919.904,VALID,0,VALID,72.392,VALID,440.724,VALID,24.0311,VALID,61,VALID,0,
2015-05-22, 09:50:04,VALID,919.929,VALID,0,VALID,74.9306,VALID,441.261,VALID,24.0292,VALID,61,VALID,0,
2015-05-22, 09:51:04,VALID,919.917,VALID,0,VALID,76.1503,VALID,436.856,VALID,24.1305,VALID,70,VALID,0,
2015-05-22, 09:52:04,VALID,919.916,VALID,0,VALID,79.1539,VALID,456.84,VALID,24.1677,VALID,70,VALID,0,
2015-05-22, 09:53:04,VALID,919.929,VALID,0,VALID,75.4413,VALID,487.675,VALID,24.2049,VALID,69,VALID,0,
2015-05-22, 09:54:04,VALID,919.918,VALID,0,VALID,77.6826,VALID,474.46,VALID,24.4411,VALID,16,VALID,0,
2015-05-22, 09:55:04,VALID,919.939,VALID,0,VALID,73.3525,VALID,489.609,VALID,24.5192,VALID,56,VALID,0.0289063,
2015-05-22, 09:56:04,VALID,919.908,VALID,0,VALID,75.2126,VALID,458.022,VALID,24.4002,VALID,60,VALID,0,
2015-05-22, 09:57:04,VALID,919.92,VALID,0,VALID,77.8351,VALID,416.12,VALID,24.3416,VALID,66,VALID,0.128125,
2015-05-22, 09:58:04,VALID,919.936,VALID,0,VALID,76.0893,VALID,419.343,VALID,24.244,VALID,77,VALID,0,
2015-05-22, 09:59:04,VALID,919.95,VALID,0,VALID,80.2898,VALID,421.169,VALID,24.1659,VALID,89,VALID,0.000390625,
2015-05-22, 10:00:04,VALID,919.924,VALID,0,VALID,80.1755,VALID,410.64,VALID,24.1854,VALID,1,VALID,0.102734,
2015-05-22, 10:01:04,VALID,919.936,VALID,0,VALID,80.7548,VALID,406.342,VALID,24.1287,VALID,12,VALID,0,
2015-05-22, 10:02:04,VALID,919.917,VALID,0,VALID,81.1513,VALID,408.384,VALID,24.1287,VALID,16,VALID,0,
2015-05-22, 10:03:04,VALID,919.888,VALID,0,VALID,78.0562,VALID,415.475,VALID,24.1269,VALID,34,VALID,0,
2015-05-22, 10:04:04,VALID,919.871,VALID,0,VALID,80.1907,VALID,426.756,VALID,24.2068,VALID,12,VALID,0,
2015-05-22, 10:05:04,VALID,919.817,VALID,0,VALID,80.0001,VALID,432.988,VALID,24.2458,VALID,6,VALID,0,
2015-05-22, 10:06:04,VALID,919.828,VALID,0,VALID,81.0674,VALID,422.244,VALID,24.3416,VALID,5,VALID,0,
2015-05-22, 10:07:04,VALID,919.806,VALID,0,VALID,82.2795,VALID,412.144,VALID,24.5368,VALID,28,VALID,0,
2015-05-22, 10:08:04,VALID,919.842,VALID,0,VALID,81.1589,VALID,419.987,VALID,24.654,VALID,341,VALID,0,
2015-05-22, 10:09:04,VALID,919.84,VALID,0,VALID,82.2643,VALID,440.724,VALID,24.7711,VALID,320,VALID,0,
2015-05-22, 10:10:04,VALID,919.872,VALID,0,VALID,80.6024,VALID,461.782,VALID,24.8297,VALID,18,VALID,0,
2015-05-22, 10:11:04,VALID,919.871,VALID,0,VALID,80.4575,VALID,486.386,VALID,25.0074,VALID,17,VALID,0,
2015-05-22, 10:12:04,VALID,919.872,VALID,0,VALID,79.497,VALID,529.148,VALID,25.064,VALID,325,VALID,0,
2015-05-22, 10:13:04,VALID,919.858,VALID,0,VALID,79.5808,VALID,522.486,VALID,25.0055,VALID,287,VALID,0,
2015-05-22, 10:14:04,VALID,919.861,VALID,0,VALID,79.2988,VALID,494.122,VALID,24.8688,VALID,272,VALID,0,
2015-05-22, 10:15:04,VALID,919.88,VALID,0,VALID,79.7333,VALID,523.238,VALID,24.8102,VALID,267,VALID,0,
2015-05-22, 10:16:04,VALID,919.877,VALID,0,VALID,80.1069,VALID,582.331,VALID,24.7711,VALID,267,VALID,0,
2015-05-22, 10:17:04,VALID,919.896,VALID,0,VALID,81.6163,VALID,519.048,VALID,24.7321,VALID,268,VALID,0,
2015-05-22, 10:18:04,VALID,919.885,VALID,0,VALID,81.5553,VALID,470.27,VALID,24.7321,VALID,269,VALID,0,
2015-05-22, 10:19:04,VALID,919.905,VALID,0,VALID,80.854,VALID,467.799,VALID,24.7711,VALID,270,VALID,0,
2015-05-22, 10:20:04,VALID,919.911,VALID,0,VALID,80.7396,VALID,477.683,VALID,24.7516,VALID,269,VALID,0,
2015-05-22, 10:21:04,VALID,919.905,VALID,0,VALID,80.4575,VALID,477.791,VALID,24.8297,VALID,270,VALID,0,
2015-05-22, 10:22:04,VALID,919.885,VALID,0,VALID,79.3826,VALID,481.229,VALID,24.8102,VALID,273,VALID,0,
2015-05-22, 10:23:04,VALID,919.839,VALID,0,VALID,79.9849,VALID,477.254,VALID,24.6735,VALID,277,VALID,0,
2015-05-22, 10:24:04,VALID,919.844,VALID,0,VALID,80.8082,VALID,472.849,VALID,24.5368,VALID,303,VALID,0,
2015-05-22, 10:25:04,VALID,919.83,VALID,0,VALID,81.319,VALID,475.857,VALID,24.4978,VALID,313,VALID,0,
2015-05-22, 10:26:04,VALID,919.796,VALID,0,VALID,80.8387,VALID,485.527,VALID,24.4978,VALID,314,VALID,0,
2015-05-22, 10:27:04,VALID,919.821,VALID,0,VALID,80.5795,VALID,505.94,VALID,24.4374,VALID,280,VALID,0,
2015-05-22, 10:28:04,VALID,919.777,VALID,0,VALID,81.662,VALID,531.404,VALID,24.5564,VALID,307,VALID,0,
2015-05-22, 10:29:04,VALID,919.795,VALID,0,VALID,79.5199,VALID,536.883,VALID,24.6912,VALID,325,VALID,0,
2015-05-22, 10:30:04,VALID,919.817,VALID,0,VALID,76.3942,VALID,534.735,VALID,24.7497,VALID,331,VALID,0,
2015-05-22, 10:31:04,VALID,919.798,VALID,0,VALID,75.083,VALID,551.173,VALID,24.7888,VALID,331,VALID,0,
2015-05-22, 10:32:04,VALID,919.81,VALID,0,VALID,75.327,VALID,569.76,VALID,24.9059,VALID,322,VALID,0,
2015-05-22, 10:33:04,VALID,919.795,VALID,0,VALID,75.022,VALID,624.341,VALID,25.1207,VALID,320,VALID,0,
2015-05-22, 10:34:04,VALID,919.781,VALID,0,VALID,74.8391,VALID,606.828,VALID,25.2769,VALID,13,VALID,0,
2015-05-22, 10:35:04,VALID,919.792,VALID,0,VALID,73.3601,VALID,651.416,VALID,25.5093,VALID,341,VALID,0,
2015-05-22, 10:36:04,VALID,919.786,VALID,0,VALID,73.5812,VALID,522.057,VALID,25.648,VALID,344,VALID,0,
2015-05-22, 10:37:04,VALID,919.745,VALID,0,VALID,72.735,VALID,500.461,VALID,25.7651,VALID,298,VALID,0,
2015-05-22, 10:38:04,VALID,919.743,VALID,0,VALID,71.9117,VALID,517.329,VALID,25.7847,VALID,299,VALID,0,
2015-05-22, 10:39:04,VALID,919.726,VALID,0,VALID,73.8404,VALID,635.407,VALID,25.8062,VALID,258,VALID,0,
2015-05-22, 10:40:04,VALID,919.719,VALID,0,VALID,74.5265,VALID,630.357,VALID,25.6694,VALID,253,VALID,0,
2015-05-22, 10:41:04,VALID,919.716,VALID,0,VALID,72.026,VALID,548.165,VALID,25.5132,VALID,259,VALID,0.0394531,
2015-05-22, 10:42:04,VALID,919.705,VALID,0,VALID,74.153,VALID,457.484,VALID,25.5113,VALID,258,VALID,0,
2015-05-22, 10:43:04,VALID,919.693,VALID,0,VALID,73.0476,VALID,432.236,VALID,25.6694,VALID,255,VALID,0,
2015-05-22, 10:44:04,VALID,919.685,VALID,0,VALID,77.2404,VALID,421.492,VALID,25.687,VALID,265,VALID,0,
2015-05-22, 10:45:04,VALID,919.664,VALID,0,VALID,71.9727,VALID,420.095,VALID,25.7261,VALID,263,VALID,0,
2015-05-22, 10:46:04,VALID,919.663,VALID,0,VALID,69.4265,VALID,423.103,VALID,25.8042,VALID,287,VALID,0,
2015-05-22, 10:47:04,VALID,919.685,VALID,0,VALID,72.6283,VALID,426.864,VALID,25.8433,VALID,319,VALID,0,
2015-05-22, 10:48:04,VALID,919.677,VALID,0,VALID,67.2614,VALID,428.905,VALID,25.8823,VALID,47,VALID,0,
2015-05-22, 10:49:04,VALID,919.673,VALID,0,VALID,69.5942,VALID,434.707,VALID,25.9409,VALID,281,VALID,0,
2015-05-22, 10:50:04,VALID,919.677,VALID,0,VALID,68.1076,VALID,448.782,VALID,25.9214,VALID,332,VALID,0,
2015-05-22, 10:51:04,VALID,919.669,VALID,0,VALID,69.1977,VALID,479.51,VALID,25.98,VALID,348,VALID,0,
2015-05-22, 10:52:04,VALID,919.612,VALID,0,VALID,68.8394,VALID,535.164,VALID,26.0952,VALID,349,VALID,0,
2015-05-22, 10:53:04,VALID,919.6,VALID,0,VALID,65.386,VALID,506.048,VALID,26.2339,VALID,360,VALID,0,
2015-05-22, 10:54:04,VALID,919.608,VALID,0,VALID,67.452,VALID,496.378,VALID,26.2925,VALID,360,VALID,0,
2015-05-22, 10:55:04,VALID,919.591,VALID,0,VALID,68.0695,VALID,469.41,VALID,26.4683,VALID,354,VALID,0,
2015-05-22, 10:56:04,VALID,919.576,VALID,0,VALID,65.2717,VALID,451.36,VALID,26.566,VALID,303,VALID,0,
2015-05-22, 10:57:04,VALID,919.586,VALID,0,VALID,65.9426,VALID,439.327,VALID,26.3902,VALID,240,VALID,0,
2015-05-22, 10:58:04,VALID,919.575,VALID,0,VALID,66.1408,VALID,429.872,VALID,26.3491,VALID,240,VALID,0,
2015-05-22, 10:59:04,VALID,919.584,VALID,0,VALID,65.5842,VALID,421.707,VALID,26.3296,VALID,298,VALID,0,
2015-05-22, 11:00:04,VALID,919.596,VALID,0,VALID,67.8103,VALID,414.723,VALID,26.2339,VALID,346,VALID,0,
2015-05-22, 11:01:04,VALID,919.573,VALID,0,VALID,68.2524,VALID,412.574,VALID,26.2925,VALID,346,VALID,0,
2015-05-22, 11:02:04,VALID,919.583,VALID,0,VALID,70.7682,VALID,417.839,VALID,26.3316,VALID,347,VALID,0,
2015-05-22, 11:03:04,VALID,919.567,VALID,0,VALID,68.6412,VALID,437.178,VALID,26.2534,VALID,270,VALID,0,
2015-05-22, 11:04:04,VALID,919.567,VALID,0,VALID,70.8749,VALID,481.874,VALID,26.312,VALID,314,VALID,0,
2015-05-22, 11:05:04,VALID,919.561,VALID,0,VALID,69.5865,VALID,440.724,VALID,26.3902,VALID,305,VALID,0,
2015-05-22, 11:06:04,VALID,919.588,VALID,0,VALID,69.6475,VALID,437.071,VALID,26.4488,VALID,254,VALID,0,
2015-05-22, 11:07:04,VALID,919.591,VALID,0,VALID,70.0973,VALID,414.293,VALID,26.4077,VALID,244,VALID,0,
2015-05-22, 11:08:04,VALID,919.619,VALID,0,VALID,71.7363,VALID,405.053,VALID,26.3511,VALID,244,VALID,0,
2015-05-22, 11:09:04,VALID,919.595,VALID,0,VALID,70.6538,VALID,403.764,VALID,26.271,VALID,252,VALID,0,
2015-05-22, 11:10:04,VALID,919.625,VALID,0,VALID,70.8825,VALID,391.623,VALID,26.3491,VALID,262,VALID,0,
2015-05-22, 11:11:04,VALID,919.617,VALID,0,VALID,70.8825,VALID,391.086,VALID,26.5074,VALID,344,VALID,0,